Miscellaneous Local Product
Issued by NWS Hastings, NE

Home | Current Version | Previous Version | Text Only | Print | Product List | Glossary On
Versions: 1 2 3 4 5 6 7 8 9 10 11 12 13 14 15 16 17 18 19 20 21 22 23 24 25 26 27 28 29 30 31 32 33 34 35 36 37 38 39 40 41 42 43 44 45 46 47 48 49 50
000
AXUS43 KGID 061302
MISGRI

GID CWA HOURLY WEATHER ROUNDUP
NATIONAL WEATHER SERVICE HASTINGS NE
700 AM CST FRI MAR 06 2015

NOTE: "FAIR" INDICATES FEW OR NO CLOUDS BELOW 12,000 FEET WITH NO
SIGNIFICANT WEATHER AND/OR OBSTRUCTIONS TO VISIBILITY.

...SOUTH CENTRAL NEBRASKA...

CITY           SKY/WX    TMP DP  RH WIND       PRES   REMARKS
GRAND ISLAND   CLEAR     22  14  71 W8        30.20S WCI  12
HASTINGS       CLEAR     26  14  60 W8        30.20S WCI  18
KEARNEY        CLEAR     27  14  59 W7        30.21S WCI  19
ORD            CLEAR     15   9  76 NW3       30.18R
YORK           CLEAR     18  14  86 W9        30.20R WCI   6
AURORA         CLEAR     23  14  69 W7        30.20R WCI  14
LEXINGTON      CLEAR     17  13  83 NW6       30.22S WCI   9
HOLDREGE       CLEAR     28  17  62 W13       30.22S WCI  18
HEBRON         CLEAR     26  14  61 W6        30.24R WCI  19

...NEBRASKA PANHANDLE...

CITY           SKY/WX    TMP DP  RH WIND       PRES   REMARKS
CHADRON        MOCLDY    30  23  75 SW8       30.19R WCI  22
ALLIANCE       PTCLDY    23  18  81 W12       30.18R WCI  12
SCOTTSBLUFF    CLEAR     25  19  78 N5        30.22R WCI  19
SIDNEY         CLEAR     29  18  63 W13       30.22R WCI  19

...WESTERN AND NORTH CENTRAL NEBRASKA...

CITY           SKY/WX    TMP DP  RH WIND       PRES   REMARKS
VALENTINE      PTCLDY    24  18  77 SW9       30.14S WCI  14
AINSWORTH      PTCLDY    26  19  72 W6        30.14S WCI  20
ONEILL         CLEAR     24  19  80 W7        30.14S WCI  16
BROKEN BOW     CLEAR     30  16  56 N3        30.18R
IMPERIAL         N/A     27  17  66 W12       30.23S WCI  17
NORTH PLATTE   CLEAR     15  12  88 NW7       30.21S WCI   5
MCCOOK         CLEAR     24  17  74 W13       30.25S WCI  12

...EASTERN NEBRASKA...

CITY           SKY/WX    TMP DP  RH WIND       PRES   REMARKS
NORFOLK        CLEAR     20  11  68 NW5       30.15S WCI  13
SO SIOUX CITY  CLEAR     15   8  73 E6        30.15S WCI   6
TEKAMAH        CLEAR     17  10  74 CALM      30.18R
COLUMBUS       CLEAR     14   1  57 W5        30.19S WCI   6
ALBION         PTCLDY    19  10  66 CALM      30.17S
OMAHA EPPLEY   PTCLDY    20  14  77 S9        30.20S WCI   9
OFFUTT AFB     CLEAR     15  11  83 CALM      30.18S
MILLARD        CLEAR     19  14  82 CALM      30.19S
LINCOLN        CLEAR     19  12  74 S6        30.22R WCI  11
NEBRASKA CITY  PTCLDY    26  15  61 SW16      30.20R WCI  14
BEATRICE       CLEAR     21  15  75 SW5       30.24R WCI  15
FALLS CITY     CLEAR     28  19  69 SW5       30.24S WCI  23

...NORTHERN KANSAS...

CITY           SKY/WX    TMP DP  RH WIND       PRES   REMARKS
GOODLAND       CLEAR     27  19  72 W10       30.26R WCI  17
HILL CITY      CLEAR     23  17  78 W8        30.27S WCI  14
NORTON         SUNNY     18  12  79 SW9       30.24  WCI   6
PHILLIPSBURG   CLEAR     23  18  80 SW6       30.26F WCI  16
SMITH CENTER   CLEAR     18  12  79 W5        30.26F WCI  11
BELOIT         CLEAR     21  12  68 S3        30.27S
HAYS           CLEAR     23  10  58 W7        30.28R WCI  15
RUSSELL        CLEAR     24  17  74 SW10      30.27R WCI  14
CONCORDIA      CLEAR     28  16  60 SW13      30.25S WCI  17
SALINA         CLEAR     25  20  81 S7        30.30F WCI  17
TOPEKA         CLEAR     30  19  63 SW7       30.31S WCI  23



USA.gov is the U.S. government's official web portal to all federal, state and local government web resources and services.